Regional Weather Roundup
Issued by NWS

Home | Current Version | Previous Version | Text Only | Print | Product List | Glossary Off
Versions: 1 2 3 4 5 6 7 8 9 10 11 12 13 14 15 16 17 18 19 20 21 22 23 24 25 26 27 28 29 30 31 32 33 34 35 36 37 38 39 40 41 42 43 44 45 46 47 48 49 50

892
ASUS43 KTOP 220408
RWRKS

WEATHER ROUNDUP FOR KANSAS
NATIONAL WEATHER SERVICE GOODLAND KS
1100 PM CDT THU MAY 21 2015

NOTE:  "FAIR" INDICATES FEW OR NO CLOUDS BELOW 12,000 FEET WITH NO
SIGNIFICANT WEATHER AND/OR OBSTRUCTIONS TO VISIBILITY.

KSZ001>006-013>018-027>032-041>047-220500-
NORTHWEST KANSAS

CITY           SKY/WX    TMP DP  RH WIND       PRES   REMARKS
GOODLAND       CLOUDY    51  45  79 SE6       30.20R
HAYS           MOCLDY    52  39  62 SE7       30.22F
HILL CITY      CLOUDY    51  44  77 S5        30.22R
RUSSELL        MOCLDY    51  46  83 SE7       30.22R
$$

KSZ061>065-074>080-084>089-220500-
SOUTHWEST KANSAS

CITY           SKY/WX    TMP DP  RH WIND       PRES   REMARKS
DODGE CITY     CLOUDY    54  45  71 E8        30.21R
ELKHART          N/A     50  45  83 E9          N/A
GARDEN CITY    CLOUDY    53  45  74 E10       30.18R
GREAT BEND     MOCLDY    54  45  71 E5        30.22S
LIBERAL        CLOUDY    55  45  67 SE10      30.21R
PRATT          MOCLDY    54  45  71 SE5       30.23S
$$

KSZ066>073-081>083-090>101-220500-
SOUTHEAST KANSAS

CITY           SKY/WX    TMP DP  RH WIND       PRES   REMARKS
CHANUTE        CLEAR     52  49  89 CALM      30.24R
COFFEYVILLE    CLEAR     51  50  96 CALM      30.23R
HUTCHINSON     CLEAR     51  45  79 E3        30.24R
MEDICINE LODGE   N/A     56  47  71 E6        30.21S
NEWTON         CLEAR     54  43  66 SE5       30.26R
PARSONS        CLEAR     50  49  96 CALM      30.25R
WICHITA INTL   PTCLDY    55  45  68 SE7       30.23R
WICHITA JABRA  CLEAR     54  45  71 S5        30.24R
WICHITA MCCONL CLEAR     55  46  71 E5        30.23R
WINFIELD       CLEAR     54  48  80 CALM      30.25R
$$

KSZ007>012-019>026-033>040-048>060-102>105-220500-
NORTHEAST KANSAS

CITY           SKY/WX    TMP DP  RH WIND       PRES   REMARKS
CONCORDIA      MOCLDY    53  43  68 SW7       30.24R
EMPORIA        CLEAR     51  46  83 S6        30.24R
LAWRENCE       PTCLDY    51  48  89 CALM      30.22R
MANHATTAN      PTCLDY    52  48  86 CALM      30.23R
MARYSVILLE     MOCLDY    52  45  76 CALM      30.22R
OLATHE IND     PTCLDY    54  47  77 S5        30.23R
OLATHE EXE     CLEAR     55  48  77 CALM      30.21R
SALINA         PTCLDY    54  46  74 S6        30.24R
TOPEKA BILLARD MOCLDY    55  50  83 CALM      30.23R
TOPEKA FORBES  MOCLDY    54  48  80 SW3       30.22R
$$



USA.gov is the U.S. government's official web portal to all federal, state and local government web resources and services.